Regional Weather Roundup
Issued by NWS

Home | Current Version | Previous Version | Graphics & Text | Print | Product List | Glossary On
Versions: 1 2 3 4 5 6 7 8 9 10 11 12 13 14 15 16 17 18 19 20 21 22 23 24 25 26 27 28 29 30 31 32 33 34 35 36 37 38 39 40 41 42 43 44 45 46 47 48 49 50
000
ASUS45 KBOU 281307
RWRCO

WEATHER ROUNDUP FOR COLORADO
NATIONAL WEATHER SERVICE DENVER/BOULDER CO
700 AM MDT SAT MAR 28 2015

NOTE: "FAIR" INDICATES FEW OR NO CLOUDS BELOW 12000 FEET WITH NO
SIGNIFICANT WEATHER AND/OR OBSTRUCTIONS TO VISIBILITY.

COZ001>005-013-030-031-281400-
...NORTHWEST COLORADO...

CITY           SKY/WX    TMP DP  RH WIND       PRES   REMARKS
CRAIG          CLEAR     26  23  88 CALM      30.22S
HAYDEN         CLEAR     34  25  69 E9        30.22S WCI  26
MEEKER         CLEAR     32  25  75 CALM      30.24R
MOUNT WERNER   NOT AVBL
STEAMBOAT SPGS CLEAR     32  27  81 CALM      30.24S
WALDEN         CLEAR     30  23  74 SE3       30.25R
$$

COZ006>008-011-281400-
...WEST CENTRAL VALLEYS...

CITY           SKY/WX    TMP DP  RH WIND       PRES   REMARKS
GRAND JUNCTION CLEAR     42  26  53 E12       30.18R
MONTROSE       CLEAR     37  25  61 SE8       30.25R
EAGLE          CLEAR     30  27  86 CALM      30.31R
RIFLE          CLEAR     33  25  72 E6        30.24R WCI  28
DELTA          CLEAR     38  26  61 NE5       30.24R
NUCLA          CLEAR     37  23  56 NW3       30.29R
$$

COZ017>023-064>068-281400-
...SOUTHWEST COLORADO...

CITY           SKY/WX    TMP DP  RH WIND       PRES   REMARKS
DURANGO        CLEAR     30  22  72 E3        30.28R
CORTEZ         CLEAR     28  20  71 CALM      30.26R
PAGOSA SPRINGS CLEAR     32  22  67 CALM      30.32R
TELLURIDE      CLEAR     35  22  59 SE6       30.39S WCI  30
WOLF CREEK PAS CLEAR     32  14  47 SW10      30.49S WCI  24
$$

COZ009-010-012-014-032>034-037-058>063-281400-
...CENTRAL COLORADO...

CITY           SKY/WX    TMP DP  RH WIND       PRES   REMARKS
ASPEN          CLEAR     31  23  72 S8        30.29S WCI  23
BUENA VISTA    CLEAR     31  22  69 CALM      30.29R
COPPER MTN     PTCLDY    34  21  60 W10G16    30.43R WCI  26
BERTHOUD PASS  FAIR      27  19  74 NW30G38   30.40R WCI  10
COTTONWOOD PAS CLEAR     45  18  33 NW13G18   30.34R
GUNNISON       PTCLDY    25  19  80 CALM      30.38R
KREMMLING      PTCLDY    25  21  86 CALM      30.31R
LEADVILLE      CLEAR     27  18  69 E7        30.35R WCI  19
SALIDA         CLEAR     32  23  68 CALM      30.36R
SUNLIGHT       CLEAR     36  23  60 CALM      30.41F
WILKERSON PASS PTCLDY    34  19  55 NW12G26   30.40S WCI  25
$$

COZ069>075-281400-
...SAN LUIS VALLEY/SANGRE DE CRISTO MOUNTAINS...

CITY           SKY/WX    TMP DP  RH WIND       PRES   REMARKS
ALAMOSA        PTCLDY    24  18  77 E5        30.30R WCI  18
LA VETA PASS   PTCLDY    34  18  51 S9        30.36R WCI  26
SAGUACHE       CLEAR     32  21  64 NW14      30.31S WCI  22
$$

COZ035-036-038>040-281400-
...NORTHERN COLORADO FRONT RANGE...

CITY           SKY/WX    TMP DP  RH WIND       PRES   REMARKS
DENVER INTL AP CLEAR     49  28  44 SW10      30.09R
DMNS CITY PARK   N/A     47  26  43 S6G12     30.10S
AURORA         CLEAR     49  27  42 SW7       30.11R
FRONT RANGE AP CLEAR     54  28  37 MISG      30.10R
ERIE MUNI ARPT CLEAR     40  30  66 S5        30.07S
BOULDER MUN AP CLEAR     46  30  53 NW3       30.07S
CENTENNIAL     PTCLDY    47  27  45 SW7       30.11S
BROOMFIELD     CLEAR     54  27  35 W8        30.10R
FORT COLLINS   CLEAR     45  27  49 N7        30.08S
LONGMONT       CLEAR     40  30  67 CALM      30.09R
$$

COZ041-046-047-076>085-087-088-281400-
...PIKES PEAK/PALMER DIVIDE AND SOUTHERN FOOTHILLS...

CITY           SKY/WX    TMP DP  RH WIND       PRES   REMARKS
COLO. SPRINGS  CLEAR     48  24  39 N10       30.15S
A. F. ACADEMY  CLEAR     40  24  52 NE7       30.16S
ELLICOTT       CLEAR    N/A N/A N/A N6        30.14R
FALCON         CLEAR     45  22  41 NW8       30.18S
FORT CARSON    CLEAR     42  26  52 NW6       30.12S
LIMON          CLEAR     35  28  75 CALM      30.10R
MONUMENT HILL  CLEAR     37  25  60 W7        30.17R
TRINIDAD       CLEAR     43  26  51 SW20      30.15S
$$

COZ042>045-048>051-090-091-281400-
...NORTHEAST COLORADO...

CITY           SKY/WX    TMP DP  RH WIND       PRES   REMARKS
GREELEY ARPT   CLEAR     30  18  59 NW6       30.06R WCI  24
AKRON          CLEAR     43  31  62 W12       30.04R
BURLINGTON     CLEAR     38  31  76 W9        30.04R
WRAY           CLEAR     38  32  80 W6        30.02R
STERLING       CLEAR     32  30  93 S5        30.03R WCI  27
HOLYOKE        CLEAR     37  32  81 W7        30.00S
FORT MORGAN    CLEAR     38  27  63 W7        30.06R
$$

COZ086-089-092>099-281400-
...SOUTHEAST COLORADO...

CITY           SKY/WX    TMP DP  RH WIND       PRES   REMARKS
PUEBLO         CLEAR     36  29  75 NW6       30.10R
LA JUNTA       CLEAR     45  32  60 W15       30.06R
LAMAR          CLEAR     36  31  82 SW8       30.04R
SPRINGFIELD      N/A     44  32  62 W9        30.07R
$$



USA.gov is the U.S. government's official web portal to all federal, state and local government web resources and services.